Date String (YYYY-MM-DD hh:mm:ss) UTC,Instrument flags,absolute air pressure of the measurement (hPa),sample flow rate (lpm),inlet stack bypass flow (lpm),air temperature of the measurement (°C),ambient temperature measured by the external sensor (°C),aerosol sample conditioner tube jacket temperature (°C),OPC LED temperature (°C),internal box temperature (°C),relative humidity of the measurement (%),span deviation,mass concentration of particles derived from Lorenz-Mie calculation of OPC scattering (μg/m³),mass concentration of particles derived from Lorenz-Mie calculation of OPC scattering (μg/m³),mass concentration of particles derived from Lorenz-Mie calculation of OPC scattering (μg/m³)
DateTimeUTC,F1_M11,P_M11,Q1_M11,Q2_M11,T1_M11,T2_M11,T3_M11,T4_M11,T5_M11,U1_M11,ZSPAN_M11,X2_M11,X0_M11,X1_M11
2023-10-12 00:00:00,SystemResetWarning,0814.4,5.00,000.00,028.8,024.4,000.0,037.1,030.3,24.1,0000.0,0001.95,0003.28,0001.36
2023-10-12 00:01:00,SystemResetWarning,0814.3,5.01,000.00,028.7,024.3,000.0,037.1,030.1,24.0,0000.0,0001.92,0003.09,0001.39
2023-10-12 00:02:00,SystemResetWarning,0814.3,5.01,000.00,028.6,024.6,000.0,037.1,029.9,24.1,0000.0,0001.89,0003.00,0001.42
2023-10-12 00:03:00,SystemResetWarning,0814.4,5.00,000.00,028.5,025.0,000.0,037.1,029.9,24.0,0000.0,0001.94,0003.07,0001.47
2023-10-12 00:04:00,SystemResetWarning,0814.4,5.00,000.00,028.4,025.4,000.0,037.1,030.0,23.9,0000.0,0001.98,0003.13,0001.52
2023-10-12 00:05:00,SystemResetWarning,0814.3,4.99,000.00,028.4,025.7,000.0,037.1,030.0,24.0,0000.0,0002.05,0003.28,0001.54
2023-10-12 00:06:00,SystemResetWarning,0814.3,4.99,000.00,028.4,026.0,000.0,037.1,030.1,24.0,0000.0,0002.07,0003.34,0001.53
2023-10-12 00:07:00,SystemResetWarning,0814.3,5.00,000.00,028.4,026.3,000.0,037.0,030.1,24.0,0000.0,0002.00,0003.25,0001.48
2023-10-12 00:08:00,SystemResetWarning,0814.3,5.01,000.00,028.4,026.5,000.0,037.0,030.1,24.0,0000.0,0001.93,0003.12,0001.43
2023-10-12 00:09:00,SystemResetWarning,0814.3,5.00,000.00,028.4,026.6,000.0,037.0,030.1,24.2,0000.0,0001.85,0002.97,0001.36
2023-10-12 00:10:00,SystemResetWarning,0814.3,4.99,000.00,028.4,026.8,000.0,037.0,030.1,24.2,0000.0,0001.79,0003.15,0001.32
2023-10-12 00:11:00,SystemResetWarning,0814.3,4.99,000.00,028.5,026.9,000.0,037.0,030.2,23.9,0000.0,0001.68,0003.05,0001.27
2023-10-12 00:12:00,SystemResetWarning,0814.3,5.00,000.00,028.5,027.0,000.0,037.0,030.2,23.7,0000.0,0001.62,0002.96,0001.23
2023-10-12 00:13:00,SystemResetWarning,0814.3,5.01,000.00,028.5,027.0,000.0,037.0,030.2,23.1,0000.0,0001.60,0002.94,0001.20
2023-10-12 00:14:00,SystemResetWarning,0814.3,5.01,000.00,028.5,027.1,000.0,037.0,030.2,22.3,0000.0,0001.56,0002.88,0001.17
2023-10-12 00:15:00,SystemResetWarning,0814.4,5.00,000.00,028.5,027.2,000.0,037.0,030.2,22.3,0000.0,0001.52,0002.85,0001.13
2023-10-12 00:16:00,SystemResetWarning,0814.3,5.00,000.00,028.6,027.2,000.0,037.1,030.3,22.5,0000.0,0001.50,0002.81,0001.12
2023-10-12 00:17:00,SystemResetWarning,0814.3,5.00,000.00,028.6,027.3,000.0,037.1,030.3,22.7,0000.0,0001.48,0002.71,0001.15
2023-10-12 00:18:00,SystemResetWarning,0814.3,5.00,000.00,028.6,027.3,000.0,037.1,030.3,22.7,0000.0,0001.46,0002.62,0001.17
2023-10-12 00:19:00,SystemResetWarning,0814.3,5.00,000.00,028.6,027.3,000.0,037.1,030.3,22.3,0000.0,0001.50,0002.66,0001.20
2023-10-12 00:20:00,SystemResetWarning,0814.3,5.00,000.00,028.7,027.4,000.0,037.1,030.3,22.3,0000.0,0001.56,0002.72,0001.24
2023-10-12 00:21:00,SystemResetWarning,0814.3,5.00,000.00,028.7,027.4,000.0,037.1,030.4,22.1,0000.0,0001.56,0002.46,0001.28
2023-10-12 00:22:00,SystemResetWarning,0814.3,5.00,000.00,028.7,027.4,000.0,037.1,030.4,21.7,0000.0,0001.65,0002.36,0001.33
2023-10-12 00:23:00,SystemResetWarning,0814.3,5.00,000.00,028.7,027.4,000.0,037.1,030.4,21.1,0000.0,0001.76,0002.54,0001.41
2023-10-12 00:24:00,SystemResetWarning,0814.4,5.00,000.00,028.7,027.5,000.0,037.2,030.4,20.8,0000.0,0001.85,0002.68,0001.48
2023-10-12 00:25:00,SystemResetWarning,0814.4,5.00,000.00,028.7,027.5,000.0,037.2,030.4,21.0,0000.0,0001.94,0002.82,0001.54
2023-10-12 00:26:00,SystemResetWarning,0814.4,5.00,000.00,028.8,027.5,000.0,037.2,030.5,21.2,0000.0,0001.99,0002.89,0001.59
2023-10-12 00:27:00,SystemResetWarning,0814.3,5.00,000.00,028.8,027.5,000.0,037.2,030.5,21.7,0000.0,0002.05,0002.96,0001.63
2023-10-12 00:28:00,SystemResetWarning,0814.3,5.00,000.00,028.8,027.5,000.0,037.2,030.5,21.7,0000.0,0002.09,0003.03,0001.66
2023-10-12 00:29:00,SystemResetWarning,0814.3,5.00,000.00,028.8,027.6,000.0,037.2,030.5,21.3,0000.0,0002.17,0003.18,0001.69
2023-10-12 00:30:00,SystemResetWarning,0814.3,5.00,000.00,028.8,027.6,000.0,037.2,030.5,21.4,0000.0,0002.23,0003.30,0001.72
2023-10-12 00:31:00,SystemResetWarning,0814.3,4.98,000.00,028.9,026.8,000.0,037.2,030.5,21.2,0000.0,0002.26,0003.36,0001.74
2023-10-12 00:32:00,SystemResetWarning,0814.3,5.00,000.00,028.8,024.7,000.0,037.1,030.3,21.3,0000.0,0002.29,0003.46,0001.73
2023-10-12 00:33:00,SystemResetWarning,0814.3,5.01,000.00,028.7,024.1,000.0,037.1,030.1,21.4,0000.0,0002.27,0003.48,0001.72
2023-10-12 00:34:00,SystemResetWarning,0814.3,5.01,000.00,028.5,024.2,000.0,037.1,029.8,21.6,0000.0,0002.25,0003.46,0001.71
2023-10-12 00:35:00,SystemResetWarning,0814.3,5.00,000.00,028.4,024.6,000.0,037.0,029.8,21.9,0000.0,0002.26,0003.51,0001.71
2023-10-12 00:36:00,SystemResetWarning,0814.3,5.00,000.00,028.4,025.0,000.0,037.0,029.9,22.5,0000.0,0002.27,0003.58,0001.71
2023-10-12 00:37:00,SystemResetWarning,0814.3,4.99,000.00,028.3,025.4,000.0,037.0,029.9,22.6,0000.0,0002.25,0003.54,0001.69
2023-10-12 00:38:00,SystemResetWarning,0814.3,4.99,000.00,028.3,025.7,000.0,037.0,029.9,22.5,0000.0,0002.22,0003.43,0001.69
2023-10-12 00:39:00,SystemResetWarning,0814.3,5.00,000.00,028.3,026.0,000.0,037.0,029.9,22.5,0000.0,0002.18,0003.34,0001.68
2023-10-12 00:40:00,SystemResetWarning,0814.4,5.00,000.00,028.3,026.2,000.0,037.0,029.9,22.6,0000.0,0002.09,0003.18,0001.63
2023-10-12 00:41:00,SystemResetWarning,0814.3,5.00,000.00,028.3,026.4,000.0,036.9,029.9,22.7,0000.0,0002.03,0003.05,0001.60
2023-10-12 00:42:00,SystemResetWarning,0814.3,5.01,000.00,028.3,026.5,000.0,036.9,030.0,22.9,0000.0,0001.97,0002.92,0001.57
2023-10-12 00:43:00,SystemResetWarning,0814.3,5.01,000.00,028.3,026.6,000.0,036.9,030.0,23.0,0000.0,0001.92,0002.80,0001.56
2023-10-12 00:44:00,SystemResetWarning,0814.3,4.99,000.00,028.3,026.7,000.0,036.9,030.1,23.1,0000.0,0001.88,0002.71,0001.54
2023-10-12 00:45:00,SystemResetWarning,0814.3,4.99,000.00,028.4,026.8,000.0,036.9,030.1,23.1,0000.0,0001.86,0002.69,0001.53
2023-10-12 00:46:00,SystemResetWarning,0814.3,4.99,000.00,028.4,026.9,000.0,036.9,030.1,23.1,0000.0,0001.81,0003.33,0001.51
2023-10-12 00:47:00,SystemResetWarning,0814.3,5.00,000.00,028.4,027.0,000.0,036.9,030.1,23.1,0000.0,0001.75,0003.44,0001.49
2023-10-12 00:48:00,SystemResetWarning,0814.4,5.00,000.00,028.4,027.0,000.0,036.9,030.1,23.1,0000.0,0001.71,0003.37,0001.47
2023-10-12 00:49:00,SystemResetWarning,0814.3,5.01,000.00,028.5,027.1,000.0,036.9,030.1,23.5,0000.0,0001.68,0003.34,0001.43
2023-10-12 00:50:00,SystemResetWarning,0814.3,5.00,000.00,028.5,027.1,000.0,037.0,030.2,24.3,0000.0,0001.64,0003.31,0001.40
2023-10-12 00:51:00,SystemResetWarning,0814.3,5.00,000.00,028.5,027.2,000.0,037.0,030.2,24.4,0000.0,0001.63,0003.34,0001.35
2023-10-12 00:52:00,SystemResetWarning,0814.4,5.00,000.00,028.5,027.2,000.0,037.0,030.2,24.7,0000.0,0001.60,0003.34,0001.30
2023-10-12 00:53:00,SystemResetWarning,0814.4,5.00,000.00,028.5,027.2,000.0,037.0,030.2,24.6,0000.0,0001.56,0003.32,0001.26
2023-10-12 00:54:00,SystemResetWarning,0814.4,5.00,000.00,028.5,027.2,000.0,037.0,030.2,24.3,0000.0,0001.54,0003.32,0001.23
2023-10-12 00:55:00,SystemResetWarning,0814.5,5.00,000.00,028.6,027.3,000.0,037.0,030.2,23.9,0000.0,0001.51,0003.30,0001.19
2023-10-12 00:56:00,SystemResetWarning,0814.5,4.99,000.00,028.6,027.3,000.0,037.0,030.3,23.7,0000.0,0001.47,0003.25,0001.15
2023-10-12 00:57:00,SystemResetWarning,0814.5,5.00,000.00,028.6,027.3,000.0,037.0,030.3,23.9,0000.0,0001.42,0002.81,0001.10
2023-10-12 00:58:00,SystemResetWarning,0814.5,5.00,000.00,028.6,027.3,000.0,037.0,030.3,24.6,0000.0,0001.36,0002.06,0001.04
2023-10-12 00:59:00,SystemResetWarning,0814.5,5.01,000.00,028.6,027.3,000.0,037.0,030.3,25.1,0000.0,0001.32,0002.00,0001.01
